This is the latest recevied weather packets stored in our database for station/object AC1IX. If no packets are shown the sender has not sent any weather packets the latest 10 day(s).
| Time | Temp. | Humidity | Pressure | Rain* | Wind** | Luminosity | Snow |
|---|---|---|---|---|---|---|---|
| 1777762118 | 8.89° C | 49% | 1012 hPa | 0 mm | - | 29 W/m² | - |
| 1777761814 | 8.89° C | 50% | 1012.4 hPa | 0 mm | - | 31 W/m² | - |
| 1777761209 | 9.44° C | 46% | 1012 hPa | 0 mm | - | 36 W/m² | - |
| 1777760604 | 9.44° C | 51% | 1011.9 hPa | 0 mm | - | 64 W/m² | - |
| 1777759996 | 9.44° C | 53% | 1012 hPa | 0 mm | - | 60 W/m² | - |
| 1777757874 | 10.56° C | 50% | 1011.9 hPa | 0 mm | - | 139 W/m² | - |
| 1777757571 | 10.56° C | 47% | 1011.6 hPa | 0 mm | - | 134 W/m² | - |
| 1777757270 | 11.11° C | 51% | 1011.7 hPa | 0 mm | - | 182 W/m² | - |
| 1777756057 | 11.11° C | 48% | 1011.6 hPa | 0 mm | - | 319 W/m² | - |
| 1777754240 | 11.11° C | 50% | 1011.5 hPa | 0 mm | - | 66 W/m² | - |
| 1777753638 | 10.56° C | 47% | 1011.6 hPa | 0 mm | - | 60 W/m² | - |
| 1777752426 | 10.56° C | 59% | 1011.5 hPa | 0 mm | - | 142 W/m² | - |
| 1777751214 | 10° C | 55% | 1011.5 hPa | 0 mm | - | 158 W/m² | - |
| 1777750607 | 10.56° C | 56% | 1011.7 hPa | 0 mm | - | 83 W/m² | - |
| 1777749999 | 10.56° C | 58% | 1011.6 hPa | 0 mm | - | 185 W/m² | - |
| 1777749697 | 11.11° C | 59% | 1011.5 hPa | 0 mm | - | 193 W/m² | - |
| 1777749394 | 11.67° C | 57% | 1011.8 hPa | 0 mm | - | 311 W/m² | - |
| 1777749091 | 11.67° C | 59% | 1011.9 hPa | 0 mm | - | 223 W/m² | - |
| 1777747878 | 11.67° C | 62% | 1011.7 hPa | 0 mm | - | 121 W/m² | - |
| 1777747574 | 11.11° C | 65% | 1011.7 hPa | 0 mm | - | 524 W/m² | - |
| 1777747270 | 11.11° C | 65% | 1011.9 hPa | 0 mm | - | 188 W/m² | - |
| 1777746966 | 10.56° C | 68% | 1012.1 hPa | 0 mm | - | 740 W/m² | - |
| 1777746357 | 11.11° C | 65% | 1012.1 hPa | 0 mm | - | 131 W/m² | - |
| 1777746053 | 10.56° C | 65% | 1012 hPa | 0 mm | - | 691 W/m² | - |
| 1777745751 | 10° C | 72% | 1012.5 hPa | 0 mm | - | 385 W/m² | - |
* Rain latest hour (hover to see other rain measurements)
** Current wind speed in m/s (hover to see current wind gust speed)